Regional Weather Roundup
Issued by NWS

Home | Current Version | Previous Version | Graphics & Text | Print | Product List | Glossary On
Versions: 1 2 3 4 5 6 7 8 9 10 11 12 13 14 15 16 17 18 19 20 21 22 23 24 25 26 27 28 29 30 31 32 33 34 35 36 37 38 39 40 41 42 43 44 45 46 47 48 49 50
000
ASUS45 KTFX 040410
RWRMT
MONTANA REGIONAL WEATHER ROUNDUP
NATIONAL WEATHER SERVICE GREAT FALLS MT
1000 PM MDT MON AUG 03 2015

NOTE: "FAIR" INDICATES FEW OR NO CLOUDS BELOW 12000 FEET WITH NO
SIGNIFICANT WEATHER AND/OR OBSTRUCTIONS TO VISIBILITY.

MTZ001>007-043-040500-
WEST OF THE DIVIDE

CITY           SKY/WX    TMP DP  RH WIND       PRES   REMARKS
KALISPELL      MOCLDY    84  32  15 W6        29.79R SMOKE
MISSOULA       CLOUDY    81  33  17 W8        29.88R
BUTTE          MOCLDY    74  40  29 W6        30.01R
MULLAN PASS    CLOUDY    63  36  36 NW6       30.07S
DEER LODGE       N/A     73  43  33 W3        29.96S
EUREKA           N/A     84  39  20 W8        29.78R
HAMILTON         N/A     81  36  19 N10       29.90R
LIBBY            N/A     81  39  22 CALM      29.82R
$$

MTZ008-052>055-040500-
SOUTHWEST MONTANA

CITY           SKY/WX    TMP DP  RH WIND       PRES   REMARKS
BOZEMAN        MOCLDY    74  44  34 S13       29.93R
DILLON         MOCLDY    72  48  42 S22G28    29.98R
W YELLOWSTONE  CLOUDY    59  48  67 S5        30.15R
$$

MTZ009-010-012-014-046-048-049-054-040500-
EAST SLOPES AND CENTRAL MONTANA

CITY           SKY/WX    TMP DP  RH WIND       PRES   REMARKS
CUT BANK       PTCLDY    75  45  34 E7        29.80R
GREAT FALLS    MOCLDY    79  47  32 SW13      29.80R
MALMSTROM AFB  MOCLDY    78  47  33 SE10      29.78R
HELENA         CLOUDY    80  41  24 W6        29.83R
CONRAD           N/A     78  51  38 E6        29.85R
$$

MTZ011-013-016-021-045-047-050-051-040500-
NORTH CENTRAL MONTANA

CITY           SKY/WX    TMP DP  RH WIND       PRES   REMARKS
HAVRE          PTCLDY    76  51  41 E16       29.79S
CHINOOK          N/A     73  54  49 E10       29.82S
FORT BENTON      N/A     82  45  26 E18G25    29.75S
$$

MTZ017>020-022>027-061-062-040500-
NORTHEAST MONTANA

CITY           SKY/WX    TMP DP  RH WIND       PRES   REMARKS
GLASGOW        CLEAR     74  44  34 E15       29.90R
JORDAN           N/A     78  47  33 E13       29.90R
SIDNEY         CLEAR    N/A N/A N/A N3        29.94S
WOLF POINT     CLEAR     69  46  43 NE7       29.92S
POPLAR           N/A     70  48  46 E6        29.93S
$$

MTZ028>42-056>058-040500-
SOUTHCENTRAL AND SOUTHEAST MONTANA

CITY           SKY/WX    TMP DP  RH WIND       PRES   REMARKS
BAKER          CLOUDY    68  50  52 SE8       29.97S
BILLINGS       CLOUDY    81  47  30 E6        29.89R
LIVINGSTON     MOCLDY    73  47  39 SE7       29.93S
MILES CITY     CLOUDY    80  50  34 E10       29.89S
EKALAKA          N/A     70  49  47 SE6       29.97R
FORSYTH          N/A     77  48  36 E8        29.87S
LAUREL           N/A     80  45  29 S3        29.90R
$$

REGIONAL REPORTS...DAKOTAS

CITY           SKY/WX    TMP DP  RH WIND       PRES   REMARKS
WILLISTON      CLEAR     69  48  47 E5        29.97R
MINOT          CLEAR     65  49  56 S5        29.97R
DICKINSON      PTCLDY    62  51  67 E9        29.98R
BISMARCK       CLEAR     65  52  62 NE6       29.98R
GRAND FORKS    CLEAR     61  52  72 E5        29.92R
FARGO          CLEAR     59  51  75 SW5       29.94R
BUFFALO SD       N/A     70  53  54 E10       29.92R
RAPID CITY     MOCLDY    71  59  65 E10       29.99R
$$

REGIONAL REPORTS...WYOMING/IDAHO/WASHINGTON

CITY           SKY/WX    TMP DP  RH WIND       PRES   REMARKS
GILLETTE       CLOUDY    68  51  54 VRB6      30.01R
SHERIDAN       CLOUDY    74  43  32 SE7       29.91S
BUFFALO WY     CLOUDY    70  47  43 S30G44    30.09R
CODY           CLOUDY    70  50  49 SE15      30.01S
YELLOWSTONE LA   N/A     58  46  64 VRB3      30.26R
IDAHO FALLS    CLOUDY    65  55  70 S17       30.04R
SALMON         CLOUDY    73  45  35 S7        29.93R
BOISE          PTCLDY    85  48  27 CALM      29.86R
SPOKANE        CLOUDY    78  46  32 NW7       29.87S
$$

REGIONAL REPORTS...ALBERTA

CITY           SKY/WX    TMP DP  RH WIND       PRES   REMARKS
EDMONTON       CLEAR     68  57  68 E9        29.75R
CALGARY        LGT RAIN  72  52  49 N7        29.82R
LETHBRIDGE     CLOUDY    72  54  53 CALM      29.74R
MEDICINE HAT   CLEAR     79  50  36 E13G18    29.76R
WATERTON GATE    N/A     66  59  77 CALM        N/A
MILK RIVER       N/A     75  48  38 SE12        N/A
ONEFOUR          N/A     73  48  40 E17         N/A
$$

REGIONAL REPORTS...SASKATCHEWAN

CITY           SKY/WX    TMP DP  RH WIND       PRES   REMARKS
SWIFT CURRENT  CLEAR     64  57  77 SE14G24   29.92R
REGINA         CLEAR     64  54  68 E8        29.97R
SASKATOON      PTCLDY    66  55  68 SE9       29.96R
CYPRESS HILLS    N/A     66  46  48 SE10G18     N/A
VAL MARIE        N/A     68  48  49 SE9         N/A
ROCKGLEN         N/A     64  50  59 E6          N/A
ASSINIBOIA       N/A     72  54  53 E14G22      N/A
$$


USA.gov is the U.S. government's official web portal to all federal, state and local government web resources and services.